Campo Grande Airport
SBCG : now visible

Airfield :











YOU CAN JOIN US ON...

 
LOGIN :

Register | Disclaimer

   EN    FR    IT 

 









Legend :    VFR   Marginal VFR   IFR   Intensive IFR   Very Intensive IFR
Visi :
Ceiling :
>= 8 km
>= 3000ft
5 to 8 km
1000 to 3000 ft
1500m to 5 km
500 to 1000 ft
800 to 1500m
200 to 500 ft
< 800m
< 200 ft
Symbols :   Thunderstorms  Fog  Heavy snow  Heavy precipitations  Wind > 20 kt






- Airport Elevation : 1833 ft
- IATA code : CGR


SBCG - Campo Grande

CURRENT METAR :
  • 250400Z 06012KT CAVOK 27/17 Q1013

EXPIRED METARs :
  • 250300Z 07009KT CAVOK 27/17 Q1013
  • 250200Z 06007KT CAVOK 26/18 Q1014

TAF TAF SBCG
Valid from the 25 at 00:00 until the 26 at 00:00 UTC


242114Z 2500/2524 09010KT CAVOK TN24/2509Z TX35/2518Z
BECMG 2509/2511 08020KT
BECMG 2513/2515 02010KT SCT040
BECMG 2519/2521 10008KT CAVOK RMK PGF
SBCW FIR / South America



MET'MAP, your aeronautical weather chart ! - Copyright ORBIFLY December 2007 - Disclaimer

ORBIFLY MET'MAP TEAM :

Programming & Development : Alexandra Zaïnal
Concept & original design : Baudouin d'Aumeries
Assistance for programming : Marc-Olivier Méhu
Technical & hardware support : Manuel Goepfert

Contact : metmap@orbifly.com




SOURCES & CREDITS :

   NOAA       Earth
Advisory